Location: New Mesquite
(33.1168°N, 96.4336°W)
Time: 17:41:23
(UTC+00:00)

CZ-2C R/B - Pass Details

Date: 06 July 2022
Orbit: 784 x 871 km, 98.2° (Epoch: 09 August)

Event Time Altitude Azimuth Distance (km) Brightness Sun altitude
Rises 10:44:23 0° 160° (SSE) 3,403 5.7 -7.7°
Reaches altitude 10° 10:46:45 10° 158° (SSE) 2,480 5.0 -7.3°
Maximum altitude 10:52:14 71° 75° (ENE) 913 3.2 -6.4°
Drops below altitude 10° 10:57:50 10° 353° (N) 2,521 5.5 -5.4°
Sets 11:00:15 0° 351° (N) 3,463 6.2 -4.9°
